LEMUR-2-LISASAURUS

Last updated on Wed Feb 14 2018 16:20:45 GMT+0000 (Coordinated Universal Time)

1 42780U 17036R 18044.86758752 .00001466 00000-0 68190-4 0 9998 2 42780 97.4189 106.5789 0013672 141.2812 218.9407 15.21452473 35761
UTC large
Height (km)
Speed (km/s)
/
Latitude / Longitude
Inclination (degrees)
Orbital Period (minutes)
Azimuth
Elevation
Range (km)
Doppler Factor

Next 0 passes for location: London (51.5072 / 0.1276)

Sorry there are no passes over London.